Location: Napa Soda Springs
(38.3907°N, 122.2794°W)
Time: 21:07:44
(UTC+00:00)

ADEOS - Pass Details

Date: 29 October 2020
Orbit: 793 x 793 km, 98.9° (Epoch: 24 November)

Event Time Altitude Azimuth Distance (km) Brightness Sun altitude
Rises 12:41:05 0° 13° (NNE) 3,302 7.0 -22.4°
Reaches altitude 10° 12:43:25 10° 14° (NNE) 2,368 6.2 -22.0°
Maximum altitude 12:48:40 87° 102° (ESE) 800 3.5 -21.0°
Drops below altitude 10° 12:53:52 10° 194° (SSW) 2,353 5.9 -19.9°
Sets 12:56:11 0° 195° (SSW) 3,278 6.6 -19.5°
